, NM

(GMT )
Holloman AFB

Weather History for KHMN - November, 2012

Change the Weather History Date:

Wednesday, November 7, 2012

  Actual Average Record
Temperature  
Mean Temperature 58 °F -  
Max Temperature 79 °F 63 °F 79 °F (2012)
Min Temperature 37 °F 36 °F 26 °F (2002)
Degree Days  
Heating Degree Days 7    
Growing Degree Days 8 (Base 50)    
Moisture  
Dew Point 20 °F    
Average Humidity 25    
Maximum Humidity 44    
Minimum Humidity 10    
Precipitation  
Precipitation 0.00 in - - ()
Sea Level Pressure  
Sea Level Pressure 29.99 in    
Wind  
Wind Speed 4 mph (SSE)    
Max Wind Speed 10 mph    
Max Gust Speed -    
Visibility 10 miles    
Events      
Averages and records for this station are not official NWS values.
T = Trace of Precipitation, MM = Missing Value Source: NWS Daily Summary

Daily Weather History Graph

Daily Weather History Graph

Search for Another Location

Airport or City:

Trip Planner

Search our weather history database for the weather conditions in past years. The results will help you decide how hot, cold, wet, or windy it might be!

Date:

Astronomy

Nov. 07, 2012 Rise Set
Actual Time 6:27 AM MST 5:07 PM MST
Civil Twilight 6:02 AM MST 5:33 PM MST
Nautical Twilight 5:32 AM MST 6:03 PM MST
Astronomical Twilight 5:03 AM MST 6:32 PM MST
Moon No Moon Rise 12:58 PM MST (11/7)
Length of Visible Light 11h 31m
Length of Day
10h 39m
Last Quarter, 42% of the Moon is Illuminated
Nov 7
Last Quarter
Nov 13
New
Nov 20
First Quarter
Nov 28
Full
Dec 6
Last Quarter

Hourly Weather History & Observations

Time (MST) Temp. Windchill Dew Point Humidity Pressure Visibility Wind Dir Wind Speed Gust Speed Precip Events Conditions
12:55 AM 44.4 °F - 17.2 °F 34% 30.05 in 10.0 mi Calm Calm - N/A   Clear
1:55 AM 41.2 °F 38.2 °F 16.3 °F 37% 30.04 in 10.0 mi NE 4.6 mph - N/A   Clear
2:55 AM 42.3 °F 39.4 °F 17.1 °F 36% 30.03 in 10.0 mi NE 4.6 mph - N/A   Clear
3:55 AM 39.9 °F - 16.9 °F 39% 30.03 in 10.0 mi Calm Calm - N/A   Clear
4:55 AM 41.0 °F 37.1 °F 15.4 °F 36% 30.04 in 10.0 mi East 5.8 mph - N/A   Clear
5:55 AM 37.8 °F 33.3 °F 17.8 °F 44% 30.09 in 10.0 mi South 5.8 mph - N/A   Clear
6:55 AM 39.6 °F 37.4 °F 17.8 °F 41% 30.13 in 10.0 mi SE 3.5 mph - N/A   Clear
7:55 AM 47.7 °F - 19.4 °F 33% 30.13 in 10.0 mi SE 4.6 mph - N/A   Clear
8:55 AM 55.9 °F - 21.7 °F 27% 30.11 in 10.0 mi Calm Calm - N/A   Clear
9:55 AM 63.3 °F - 23.0 °F 21% 30.09 in 10.0 mi SSE 4.6 mph - N/A   Clear
10:55 AM 70.0 °F - 22.5 °F 17% 30.04 in 10.0 mi Variable 6.9 mph - N/A   Clear
11:55 AM 73.6 °F - 23.0 °F 15% 29.99 in 10.0 mi South 8.1 mph - N/A   Clear
12:55 PM 75.6 °F - 22.3 °F 14% 29.95 in 10.0 mi South 6.9 mph - N/A   Clear
1:55 PM 78.3 °F - 20.5 °F 12% 29.94 in 10.0 mi South 5.8 mph - N/A   Clear
2:55 PM 79.2 °F - 18.5 °F 10% 29.91 in 10.0 mi SW 3.5 mph - N/A   Clear
3:55 PM 78.4 °F - 20.3 °F 11% 29.91 in 10.0 mi SSW 5.8 mph - N/A   Clear
4:55 PM 74.5 °F - 21.0 °F 13% 29.91 in 10.0 mi SSE 5.8 mph - N/A   Clear
5:55 PM 66.2 °F - 21.0 °F 18% 29.95 in 10.0 mi SSE 9.2 mph - N/A   Clear
6:55 PM 62.6 °F - 21.2 °F 20% 29.96 in 10.0 mi SE 6.9 mph - N/A   Clear
7:55 PM 63.3 °F - 21.9 °F 21% 29.94 in 10.0 mi SE 9.2 mph - N/A   Clear
8:55 PM 60.4 °F - 21.7 °F 23% 29.93 in 10.0 mi SE 9.2 mph - N/A   Clear
9:55 PM 58.8 °F - 20.3 °F 23% 29.91 in 10.0 mi SE 10.4 mph - N/A   Clear
10:55 PM 57.7 °F - 20.1 °F 23% 29.88 in 10.0 mi SE 9.2 mph - N/A   Clear
11:55 PM 57.9 °F - 20.8 °F 24% 29.86 in 10.0 mi SE 6.9 mph - N/A   Clear